This demonstration page uses our WeatherBlox Daily Observations layout. Learn more.

Hourly Observations for May 31, 2020

Temp ( °F °C ) Dew Point ( °F °C ) Humidity (%) Winds ( mph kmh ) Pressure ( in mb ) Visibility ( mi km ) Precip ( " mm )
12:15 am 00:15 Clear 61 16 54 12 77 77 E 16 26 30.11 1020 10 16.0934 0 0
12:35 am 00:35 Clear 60 15.7 54 12 79 79 E 17 28 30.11 1020 10 16.0934 0 0
12:55 am 00:55 Clear 60 15.6 54 12.2 80 80 ESE 15 24 30.11 1020 10 16.0934 0 0
1:15 am 01:15 Clear 60 15.7 55 12.5 81 81 ESE 16 26 30.11 1020 10 16.0934 0 0
1:35 am 01:35 Clear 60 15.7 55 12.6 82 82 ESE 17 28 30.1 1019 10 16.0934 0 0
1:55 am 01:55 Clear 60 15.5 55 12.8 84 84 ESE 17 28 30.1 1019 10 16.0934 0 0
2:15 am 02:15 Clear 60 15.3 55 13 86 86 ESE 17 28 30.09 1019 10 16.0934 0 0
2:35 am 02:35 Clear 60 15.3 55 13 86 86 ESE 17 28 30.09 1019 10 16.0934 0 0
2:55 am 02:55 Clear 59 15.2 55 13 87 87 ESE 20 31 30.08 1019 10 16.0934 0 0
3:15 am 03:15 Partly Cloudy 59 15 55 13 88 88 ESE 18 30 30.07 1018 10 16.0934 0 0
3:35 am 03:35 Clear 59 15 56 13.1 89 89 SE 17 28 30.07 1018 10 16.0934 0 0
3:55 am 03:55 Clear 59 15.1 56 13.1 88 88 SE 17 28 30.06 1018 10 16.0934 0 0
4:15 am 04:15 Clear 59 15.2 56 13.1 87 87 SE 16 26 30.05 1018 10 16.0934 0 0
4:35 am 04:35 Clear 59 15.1 56 13.1 88 88 SE 17 28 30.05 1018 10 16.0934 0 0
4:55 am 04:55 Clear 59 15.1 56 13.2 89 89 SE 16 26 30.05 1018 10 16.0934 0 0
5:15 am 05:15 Clear 59 15.1 56 13.2 89 89 SE 16 26 30.05 1018 10 16.0934 0 0
5:35 am 05:35 Clear 59 15.2 56 13.2 88 88 SE 14 22 30.05 1018 10 16.0934 0 0
5:55 am 05:55 Clear 59 15 56 13.1 89 89 SE 13 20 30.05 1018 10 16.0934 0 0
6:15 am 06:15 Sunny 60 15.3 56 13.2 87 87 SE 12 19 30.05 1017 10 16.0934 0 0
6:35 am 06:35 Sunny 60 15.6 56 13.3 86 86 SE 13 20 30.05 1018 10 16.0934 0 0
6:55 am 06:55 Sunny 60 15.6 56 13.5 87 87 SE 16 26 30.04 1017 10 16.0934 0 0
7:15 am 07:15 Sunny 61 16.1 56 13.6 85 85 SE 16 26 30.04 1017 10 16.0934 0 0
7:35 am 07:35 Sunny 62 16.5 57 13.7 84 84 SE 17 28 30.05 1017 10 16.0934 0 0
7:55 am 07:55 Sunny 63 17.4 57 13.8 80 80 SSE 18 30 30.04 1017 10 16.0934 0 0
8:15 am 08:15 Sunny 64 17.7 57 13.8 78 78 SSE 18 30 30.04 1017 10 16.0934 0 0
8:35 am 08:35 Sunny 66 18.7 57 14 74 74 SSE 17 28 30.03 1017 10 16.0934 0 0
8:55 am 08:55 Sunny 68 20.1 57 13.7 67 67 SSE 20 31 30.02 1016 10 16.0934 0 0
9:15 am 09:15 Sunny 70 21.1 56 13.6 62 62 SSE 20 31 30 1016 10 16.0934 0 0
9:35 am 09:35 Sunny 71 21.5 56 13.3 60 60 SSE 22 35 29.99 1016 10 16.0934 0 0
9:55 am 09:55 Sunny 72 22.4 56 13.4 57 57 SSE 21 33 29.99 1015 10 16.0934 0 0
10:15 am 10:15 Sunny 72 22.4 56 13.3 57 57 S 24 39 29.99 1015 10 16.0934 0 0
10:35 am 10:35 Sunny 76 24.5 56 13.1 49 49 S 28 44 29.96 1015 10 16.0934 0 0
10:55 am 10:55 Sunny 75 23.8 55 12.7 50 50 S 26 43 29.97 1015 10 16.0934 0 0
11:15 am 11:15 Sunny 75 24.1 55 12.8 49 49 S 25 41 29.96 1015 10 16.0934 0 0
11:35 am 11:35 Sunny 75 24 55 12.9 50 50 S 23 37 29.95 1014 10 16.0934 0 0
11:55 am 11:55 Sunny 76 24.3 56 13.3 50 50 S 23 37 29.95 1014 10 16.0934 0 0
12:15 pm 12:15 Sunny 77 25 56 13.6 49 49 S 25 41 29.95 1014 10 16.0934 0 0
12:35 pm 12:35 Sunny 79 26.2 57 14 47 47 S 26 43 29.94 1014 10 16.0934 0 0
12:55 pm 12:55 Sunny 80 26.6 57 13.8 45 45 S 21 33 29.93 1014 10 16.0934 0 0
1:15 pm 13:15 Sunny 81 27.4 57 13.8 43 43 S 22 35 29.92 1013 10 16.0934 0 0
1:35 pm 13:35 Sunny 81 27.2 56 13.6 43 43 S 22 35 29.92 1013 10 16.0934 0 0
1:55 pm 13:55 Sunny 81 27.2 56 13.6 43 43 S 22 35 29.92 1013 10 16.0934 0 0
2:15 pm 14:15 Sunny 81 27 56 13.6 44 44 S 20 31 29.92 1013 10 16.0934 0 0
2:35 pm 14:35 Sunny 79 26.2 57 13.8 46 46 S 16 26 29.92 1013 10 16.0934 0 0
2:55 pm 14:55 Sunny 80 26.6 57 13.9 46 46 S 16 26 29.9 1013 10 16.0934 0 0
3:15 pm 15:15 Sunny 81 27.2 56 13.6 43 43 S 18 30 29.9 1012 10 16.0934 0 0
3:35 pm 15:35 Sunny 82 27.5 56 13.6 42 42 S 18 30 29.89 1012 10 16.0934 0 0
3:55 pm 15:55 Sunny 83 28.5 58 14.5 42 42 SSE 21 33 29.87 1011 10 16.0934 0 0
4:15 pm 16:15 Sunny 84 29 57 13.9 40 40 SSE 24 39 29.86 1011 10 16.0934 0 0
4:35 pm 16:35 Sunny 85 29.3 57 13.7 38 38 SSE 25 41 29.84 1011 10 16.0934 0 0
4:55 pm 16:55 Sunny 85 29.4 56 13.2 37 37 S 24 39 29.84 1011 10 16.0934 0 0
5:15 pm 17:15 Sunny 85 29.3 56 13.3 37 37 SSE 21 33 29.83 1010 10 16.0934 0 0
5:35 pm 17:35 Sunny 85 29.7 56 13.3 37 37 SSE 25 41 29.82 1010 10 16.0934 0 0
5:55 pm 17:55 Sunny 86 30 56 13.4 36 36 SSE 23 37 29.81 1009 10 16.0934 0 0
6:15 pm 18:15 Sunny 87 30.5 55 12.6 33 33 SSE 24 39 29.8 1009 10 16.0934 0 0
6:35 pm 18:35 Sunny 86 30.2 55 12.5 34 34 S 24 39 29.8 1009 10 16.0934 0 0
6:55 pm 18:55 Sunny 85 29.7 54 12.3 34 34 SSE 25 41 29.8 1009 10 16.0934 0 0
7:15 pm 19:15 Sunny 85 29.5 55 12.6 35 35 SSE 24 39 29.79 1009 10 16.0934 0 0
7:35 pm 19:35 Sunny 84 28.9 56 13.2 38 38 SSE 23 37 29.81 1009 10 16.0934 0 0
7:55 pm 19:55 Sunny 83 28.3 56 13.6 40 40 SSE 17 28 29.81 1010 10 16.0934 0 0
8:15 pm 20:15 Sunny 82 27.7 57 13.8 42 42 SSE 18 30 29.82 1010 10 16.0934 0 0
8:35 pm 20:35 Sunny 80 26.7 57 14 46 46 SSE 16 26 29.83 1010 10 16.0934 0 0
8:55 pm 20:55 Sunny 78 25.8 57 14.1 48 48 SSE 14 22 29.84 1011 10 16.0934 0 0
9:15 pm 21:15 Clear 78 25.5 58 14.2 50 50 SSE 14 22 29.84 1011 10 16.0934 0 0
9:35 pm 21:35 Clear 77 25.2 57 14 50 50 SSE 15 24 29.85 1011 10 16.0934 0 0
9:55 pm 21:55 Clear 77 25 57 14 51 51 SSE 17 28 29.86 1011 10 16.0934 0 0
10:15 pm 22:15 Clear 76 24.6 57 14 52 52 SSE 16 26 29.86 1011 10 16.0934 0 0
10:35 pm 22:35 Clear 76 24.4 57 13.9 52 52 S 18 30 29.86 1011 10 16.0934 0 0
10:55 pm 22:55 Clear 76 24.3 57 13.9 52 52 S 18 30 29.86 1011 10 16.0934 0 0
11:15 pm 23:15 Clear 75 24 57 14 54 54 S 20 31 29.86 1011 10 16.0934 0 0
11:35 pm 23:35 Clear 74 23.6 57 13.9 55 55 S 18 30 29.87 1011 10 16.0934 0 0
11:55 pm 23:55 Clear 74 23.5 57 14 55 55 S 18 30 29.87 1011 10 16.0934 0 0

Powered by AerisWeather